Station SISW1 - Smith Island, WA Image indicating link to RSS feed of recent meteorological observations for station SISW1


Conditions at SISW1 as of
(12:10 pm PDT)
1910 GMT on 05/24/2024:
     

Click on the graph icon in the table below to see a time series plot of the last five days of that observation.

5-day plot - Wind Direction Wind Direction (WDIR):SSE ( 160 deg true )
5-day plot - Wind Speed Wind Speed (WSPD): 8 kts
5-day plot - Wind Gust Wind Gust (GST): 9 kts
5-day plot - Atmospheric Pressure Atmospheric Pressure (PRES):29.88 in
5-day plot - Air Temperature Air Temperature (ATMP): 50.0 °F
5-day plot - Wind Chill Wind Chill (CHILL): 46.4 °F
5-day plot - Wind Speed at 10 Meters Wind Speed at 10 meters (WSPD10M): 8 kts
5-day plot - Wind Speed at 20 Meters Wind Speed at 20 meters (WSPD20M): 8 kts
5-day plot -  Wind Speed, Wind Gust and Atmospheric Pressure Combined plot of Wind Speed, Gust, and Air Pressure
Supplemental Measurements
Highest 1-minute Wind Speed
Time (PDT)5-day plot - 1-Minute Wind Speed WSPD 5-day plot - 1-Minute Wind Direction WDIR
12:05 pm 10 kts-
Previous observations
TIME
(PDT)
5-day plot - Wind Direction
WDIR
 
5-day plot - Wind Speed
WSPD
kts
5-day plot - Wind Gust
GST
kts
5-day plot - Wave Height
WVHT
ft
5-day plot - Dominant Wave Period
DPD
sec
5-day plot - Average Wave Period
APD
sec
5-day plot - Mean Wave Direction
MWD
 
5-day plot - Atmospheric Pressure
PRES
in
5-day plot - Pressure Tendency
PTDY
in
5-day plot - Air Temperature
ATMP
°F
5-day plot - Water Temperature
WTMP
°F
5-day plot - Dew Point
DEWP
°F
5-day plot - Salinity
SAL
psu
5-day plot - Visibility
VIS
nmi
5-day plot - Tide (above MLLW)
TIDE
ft
2024-05-24 12:00 pmSSE 8 10----29.88-0.03 49.8-----
2024-05-24 11:50 amSSE 8 11----29.88- 49.6-----
2024-05-24 11:40 am S 3 7----29.88- 49.3-----
2024-05-24 11:30 am S 1 5----29.89- 49.1-----
2024-05-24 11:20 am- 0 2----29.89- 49.1-----
2024-05-24 11:10 am W 1 4----29.89- 48.7-----
2024-05-24 11:00 am NW 2 3----29.89-0.02 48.7-----
2024-05-24 10:50 amWNW 3 4----29.89- 48.7-----
2024-05-24 10:40 am NW 2 3----29.89- 49.1-----
2024-05-24 10:20 amWSW 2 3------------
2024-05-24 10:10 am- 0 0----29.90- 49.3-----
2024-05-24 10:00 am- 0 0----29.90-0.02 49.3-----
2024-05-24 09:50 amSSE 1 3----29.89- 49.3-----
2024-05-24 09:40 amSSE 3 3----29.90- 49.5-----
2024-05-24 09:30 amSSE 3 4----29.90- 49.5-----
2024-05-24 09:20 amSSE 3 3----29.90- 49.6-----
2024-05-24 09:10 am- 0 3----29.91- 49.6- 49.6---
2024-05-24 09:00 am- 0 0----29.91-0.01 49.8- 49.6---
2024-05-24 08:50 am- 0 1----29.91- 49.6- 49.1---
2024-05-24 08:40 amWSW 2 3----29.91- 49.3- 48.9---
2024-05-24 08:30 am W 3 5----29.91- 49.3- 49.1---
2024-05-24 08:20 am W 5 5----29.91- 49.1- 49.1---
2024-05-24 08:10 amWSW 5 6----29.91- 49.1-----
2024-05-24 08:00 am SW 5 6----29.91-0.02 49.5-----
2024-05-24 07:50 amSSW 5 6----29.91- 49.6-----
2024-05-24 07:40 amSSW 5 6----29.91- 49.6-----
2024-05-24 07:30 amSSW 5 6----29.91- 49.8-----
2024-05-24 07:20 am SW 5 5----29.91- 49.8-----
2024-05-24 07:10 amWSW 5 6----29.91- 49.8-----
2024-05-24 07:00 am W 6 8----29.91-0.03 49.8-----
2024-05-24 06:50 am W 7 9----29.92- 50.0- 50.0---
2024-05-24 06:40 am W 9 12----29.92- 50.0- 50.0---
2024-05-24 06:20 am W 9 10----29.92- 50.0- 49.8---
2024-05-24 06:10 am W 9 11----29.92- 50.0- 49.6---
2024-05-24 06:00 am W 9 11----29.92-0.03 50.2- 50.0---
2024-05-24 05:50 am W 9 12----29.92- 50.4- 50.4---
2024-05-24 05:40 am W 10 12----29.92- 50.4- 50.4---
2024-05-24 05:30 am W 10 12----29.93- 50.5- 50.2---
2024-05-24 05:20 am W 10 13----29.93- 50.7- 50.0---
2024-05-24 05:10 am W 10 12----29.93- 50.9- 49.8---
2024-05-24 05:00 am W 9 11----29.93-0.04 50.9- 50.2---
2024-05-24 04:50 am W 9 12----29.93- 50.9- 50.0---
2024-05-24 04:40 am W 9 12----29.93- 51.1- 50.0---
2024-05-24 04:30 am W 9 12----29.94- 50.9- 50.0---
2024-05-24 04:20 am W 11 14----29.94- 51.1- 49.8---
2024-05-24 04:10 am W 10 12----29.94- 50.9- 50.4---
2024-05-24 04:00 am W 11 15----29.95-0.04 50.9- 49.8---
2024-05-24 03:50 am W 11 14----29.95- 50.7- 50.0---
2024-05-24 03:40 am W 9 13----29.95- 50.7- 50.4---
2024-05-24 03:30 am W 10 12----29.95- 50.7- 50.5---
2024-05-24 03:20 am W 9 12----29.95- 50.7- 50.5---
2024-05-24 03:10 am W 10 12----29.95- 50.5- 50.4---
2024-05-24 03:00 am W 10 13----29.95-0.05 50.5- 50.4---
2024-05-24 02:50 am W 9 12----29.96- 50.7- 50.4---
2024-05-24 02:40 am W 9 12----29.96- 50.7- 50.5---
2024-05-24 02:30 am W 9 11----29.96- 50.7- 50.5---
2024-05-24 02:20 am W 9 11----29.97- 50.7- 50.5---
2024-05-24 02:10 am W 9 12----29.97- 50.7- 50.4---
2024-05-24 02:00 am W 8 10----29.97-0.04 50.7- 50.5---
2024-05-24 01:50 am W 9 12----29.98- 50.7- 50.4---
2024-05-24 01:40 am W 11 12----29.98- 50.7- 50.2---
2024-05-24 01:30 am W 10 15----29.98- 50.9- 50.4---
2024-05-24 01:20 am W 10 12----29.98- 51.1- 50.4---
2024-05-24 01:10 am W 11 14----29.99- 51.1- 50.2---
2024-05-24 01:00 am W 12 14----29.99-0.04 51.3- 50.4---
2024-05-24 12:50 am W 12 14----29.99- 51.3- 50.0---
2024-05-24 12:40 am W 12 14----29.99- 51.3- 50.0---
2024-05-24 12:30 am W 13 17----30.00- 51.3- 50.0---
2024-05-24 12:20 am W 14 17----30.00- 51.4- 50.2---
2024-05-24 12:10 am W 13 17----30.00- 51.4- 50.0---
2024-05-24 12:00 am W 14 17----30.00-0.04 51.4- 50.0---
2024-05-23 11:50 pm W 12 17----30.00- 51.4- 50.2---
2024-05-23 11:40 pm W 14 18----30.00- 51.6- 50.0---
2024-05-23 11:30 pm W 14 17----30.01- 51.6- 50.2---
2024-05-23 11:20 pm W 14 18----30.01- 51.6- 50.4---
2024-05-23 11:10 pm W 13 17----30.01- 51.6- 50.5---
2024-05-23 11:00 pm W 13 16----30.01-0.04 51.6- 50.5---
2024-05-23 10:50 pm W 13 16----30.02- 51.6- 50.5---
2024-05-23 10:40 pm W 12 16----30.02- 51.6- 50.7---
2024-05-23 10:30 pm W 12 15----30.03- 51.6- 50.7---
2024-05-23 10:20 pm W 12 14----30.03- 51.6- 50.7---
2024-05-23 10:10 pm W 12 14----30.03- 51.6- 50.9---
2024-05-23 10:00 pm W 12 14----30.03-0.03 51.8- 50.9---
2024-05-23 09:50 pm W 12 15----30.03- 51.8- 50.7---
2024-05-23 09:40 pm W 13 17----30.03- 52.0- 50.9---
2024-05-23 09:30 pm W 13 15----30.03- 51.8- 50.7---
2024-05-23 09:20 pm W 13 15----30.04- 52.0- 50.7---
2024-05-23 09:10 pm W 12 14----30.04- 51.8- 50.7---
2024-05-23 09:00 pm W 11 14----30.04-0.04 52.0- 50.9---
2024-05-23 08:50 pmWSW 12 14----30.04- 52.2- 51.1---
2024-05-23 08:40 pmWSW 12 14----30.04- 52.2- 51.1---
2024-05-23 08:30 pm W 11 13----30.04- 52.2- 51.3---
2024-05-23 08:20 pm W 11 13----30.04- 52.2- 51.4---
2024-05-23 08:10 pmWSW 11 12----30.05- 52.0- 51.1---
2024-05-23 08:00 pmWSW 10 12----30.05-0.04 52.2- 51.3---
2024-05-23 07:50 pm W 11 12----30.05- 52.3- 51.3---
2024-05-23 07:40 pm W 10 12----30.06- 52.3- 51.4---
2024-05-23 07:30 pm W 10 12----30.06- 52.2- 51.3---
2024-05-23 07:20 pm W 10 12----30.06- 52.3- 51.3---
2024-05-23 07:10 pmWSW 9 11----30.06- 52.5- 50.9---
2024-05-23 07:00 pm W 9 11----30.06-0.04 52.9- 50.9---
2024-05-23 06:50 pm W 9 11----30.06- 53.4- 50.5---
2024-05-23 06:40 pm W 9 11----30.06- 54.0- 50.2---
2024-05-23 06:30 pm W 8 10----30.07- 53.6- 50.5---
2024-05-23 06:20 pm W 7 10----30.07- 53.6- 50.5---
2024-05-23 06:10 pm W 8 10----30.07- 53.8- 50.4---
2024-05-23 06:00 pmWNW 8 10----30.07-0.05 53.8- 50.4---
2024-05-23 05:50 pmWNW 9 11----30.07- 54.1- 50.4---
2024-05-23 05:40 pmWNW 9 11----30.08- 54.5- 50.2---
2024-05-23 05:30 pmWNW 8 11----30.08- 54.3- 50.2---
2024-05-23 05:20 pmWNW 8 10----30.08- 54.3- 50.4---
2024-05-23 05:10 pmWNW 9 11----30.08- 54.3- 49.8---
2024-05-23 05:00 pmWNW 9 11----30.09-0.05 54.1- 49.6---
2024-05-23 04:50 pmWNW 8 11----30.09- 54.0- 49.8---
2024-05-23 04:40 pmWNW 8 10----30.09- 53.4- 49.8---
2024-05-23 04:30 pmWNW 7 9----30.09- 53.4- 50.4---
2024-05-23 04:20 pmWNW 8 9----30.10- 52.7- 50.2---
2024-05-23 04:10 pm NW 7 8----30.10- 52.3- 50.2---
2024-05-23 04:00 pm NW 7 8----30.10-0.04 52.2- 50.0---
2024-05-23 03:50 pm NW 7 8----30.11- 51.6- 50.0---
2024-05-23 03:40 pm NW 8 8----30.11- 51.6- 49.8---
2024-05-23 03:30 pm NW 8 8----30.11- 51.8- 49.8---
2024-05-23 03:20 pm NW 8 9----30.12- 52.0- 49.6---
2024-05-23 03:10 pm NW 7 8----30.12- 52.0- 49.6---
2024-05-23 03:00 pmNNW 5 6----30.12-0.02 52.0- 49.6---
2024-05-23 02:50 pmNNW 5 6----30.12- 51.8- 50.0---
2024-05-23 02:40 pm N 5 5----30.12- 52.0- 50.4---
2024-05-23 02:30 pmNNW 5 6----30.12- 52.0- 49.6---
2024-05-23 02:20 pmNNW 5 6----30.13- 51.8- 49.1---
2024-05-23 02:10 pmNNW 6 7----30.13- 51.4- 49.6---
2024-05-23 02:00 pm N 5 6----30.13-0.02 52.0- 49.3---
2024-05-23 01:50 pm N 5 5----30.13- 51.8- 49.1---
2024-05-23 01:40 pm N 3 4----30.13- 52.2- 49.3---
2024-05-23 01:30 pm N 1 5----30.14- 52.5- 48.9---
2024-05-23 01:20 pm- 0 0----30.13- 52.3- 49.1---
2024-05-23 01:10 pm- 0 0----30.14- 52.3- 49.5---
2024-05-23 01:00 pm- 0 0----30.14-0.01 53.1- 49.6---
2024-05-23 12:50 pm- 0 0----30.14- 52.3- 49.5---
2024-05-23 12:40 pmWSW 3 4----30.14- 51.8- 49.5---
2024-05-23 12:30 pmWSW 4 5----30.15- 51.6- 49.1---
2024-05-23 12:20 pmWSW 5 6----30.15- 51.1- 49.5---
2024-05-23 12:10 pmSSW 5 6----30.15- 50.9- 49.6---
2024-05-23 12:00 pm S 5 6----30.15+0.00 50.7- 50.0---
2024-05-23 11:50 am S 5 6----30.15- 50.5- 50.0---